Regional Weather Roundup
Issued by NWS Goodland, KS

Home | Current Version | Previous Version | Graphics & Text | Print | Product List | Glossary On
Versions: 1 2 3 4 5 6 7 8 9 10 11 12 13 14 15 16 17 18 19 20 21 22 23 24 25 26 27 28 29 30 31 32 33 34 35 36 37 38 39 40 41 42 43 44 45 46 47 48 49 50
000
ASUS43 KGLD 232259
RWRGLD

GOODLAND FORECAST AREA HOURLY WEATHER ROUNDUP
NATIONAL WEATHER SERVICE GOODLAND KS
500 PM MDT TUE AUG 23 2016

...OFFICIAL OBSERVATIONS...

CITY           SKY/WX    TMP DP  RH WIND       PRES   REMARKS
GOODLAND KS    SUNNY     92  39  15 NE10      29.92R
HILL CITY KS   SUNNY     95  59  30 VRB3      29.79F
IMPERIAL NEB   SUNNY     90  37  15 N17       29.91R
MCCOOK NEB     MOSUNNY   93  51  23 N9        29.82S
AKRON CO       SUNNY     87  26  11 N17       30.02R
BURLINGTON CO  SUNNY     93  19   7 N14       29.97S
LIMON CO       CLOUDY    83  27  13 N10       30.07S
$$

...UNOFFICIAL OBSERVATIONS...

CITY           SKY/WX    TMP DP  RH WIND       PRES   REMARKS
COLBY KS       SUNNY     95  50  21 NW9       29.89S
LENORA KS        N/A     94  32  11 MISG        N/A
NORTON KS      SUNNY     93  48  21 W9        29.80S
SHARON SPRINGS   N/A     94  50  22 NE8         N/A
TRENTON NEB      N/A     93  32  11 MISG        N/A
KIT CARSON CO    N/A     90  34  14 MISG        N/A
YUMA CO          N/A     86  33  15 N12G20      N/A
$$




USA.gov is the U.S. government's official web portal to all federal, state and local government web resources and services.